Theta_e
306 302 302 302 302 303 304 306 306 305 300 300 302 299 301 303 302 302 302 302 302 303 303 303 304 304 304 304 304 305 312 314 313 311 308 306 304 301 300 301 301 302 302 301
304 304 302 302 302 303 304 306 304 302 300 300 298 299 300 300 300 301 302 302 302 302 302 302 302 302 302 302 302 302 307 312 312 309 307 305 303 301 300 301 301 302 302 301
303 302 302 302 299 304 300 302 301 301 299 296 294 301 299 299 298 299 300 301 302 302 302 302 301 301 301 302 302 303 307 311 309 306 305 304 303 302 301 301 302 302 302 301
300 299 301 301 299 300 305 297 299 299 297 299 293 300 297 295 295 296 299 300 300 301 301 301 300 301 301 302 303 304 307 308 306 305 304 304 303 302 301 301 301 302 301 301
300 299 299 299 298 298 301 298 299 296 291 292 293 293 296 293 296 296 297 298 299 300 300 300 300 300 301 302 303 304 305 306 305 304 304 304 303 302 302 302 301 301 301 301
298 298 297 298 298 298 297 295 293 291 289 292 285 290 298 297 297 296 297 298 298 299 299 299 299 299 300 301 302 303 304 304 304 303 304 303 303 302 302 302 301 301 300 300
295 299 297 296 299 298 294 291 292 294 292 296 277 292 299 298 296 296 295 297 298 298 298 299 299 298 299 299 301 302 303 303 303 303 303 303 302 302 301 300 299 298 297 297
290 294 294 295 296 298 296 290 293 290 293 293 279 293 298 296 295 295 296 297 298 298 298 298 298 298 297 298 299 301 302 302 302 302 302 301 300 298 297 296 295 295 294 293
291 294 295 295 294 294 294 290 290 284 274 286 290 291 294 294 291 294 295 297 298 298 298 298 298 298 297 296 297 298 299 299 299 299 297 295 294 293 292 291 291 291 291 291
295 293 289 295 295 292 292 291 292 288 290 289 289 283 296 291 290 290 293 297 298 298 299 299 299 298 297 296 295 295 295 294 294 293 292 291 291 291 290 291 291 291 290 290
289 288 292 293 288 288 290 289 289 288 290 291 289 295 289 286 283 286 294 296 296 295 296 297 297 297 297 295 294 293 292 292 291 290 290 290 290 290 290 290 290 289 289 289
296 292 291 292 292 292 293 291 293 292 288 286 290 292 290 283 288 291 294 294 294 294 295 295 295 295 296 296 295 294 293 292 290 290 290 290 290 290 289 289 289 288 288 287
295 288 288 294 292 290 291 292 290 286 290 289 291 295 284 287 289 292 292 294 294 294 294 295 295 295 295 295 295 294 294 293 290 289 289 289 289 289 289 288 288 287 287 286
296 293 290 293 291 285 291 292 292 289 286 293 292 296 295 292 289 293 293 292 293 293 293 293 294 295 295 295 295 294 294 292 289 288 289 289 288 288 288 287 287 286 286 286
294 289 290 288 285 283 288 290 289 290 291 291 295 286 293 292 290 291 291 292 292 293 292 292 292 294 295 295 294 294 293 290 288 288 288 288 288 288 287 286 286 286 286 286
292 287 284 287 287 289 290 291 291 290 291 286 291 291 284 289 289 290 291 291 291 291 291 291 292 293 294 294 293 293 292 289 288 288 288 288 287 287 286 286 285 285 285 285
287 283 281 286 282 283 288 286 287 286 281 285 287 286 284 286 288 289 290 290 290 289 289 290 291 293 293 294 292 290 289 288 287 287 287 287 287 286 285 285 285 285 285 284
286 279 280 285 278 286 291 287 287 287 287 279 283 284 287 288 288 289 289 289 288 289 290 290 291 292 291 292 292 290 289 289 288 287 287 287 286 285 285 285 285 284 284 283
291 285 282 283 280 286 291 288 290 291 290 288 287 288 287 287 287 290 288 286 286 286 287 289 290 289 290 290 291 290 288 288 288 288 287 286 284 284 283 283 283 283 283 283
290 291 286 277 281 286 290 290 290 289 287 286 287 286 285 285 286 286 285 285 285 285 285 286 288 289 288 289 289 288 288 288 287 287 286 284 283 283 283 283 283 283 283 283
289 290 289 286 284 285 288 289 290 286 288 285 284 284 284 284 284 284 283 284 284 285 285 285 285 286 288 288 287 287 288 288 287 285 284 283 283 283 283 283 283 283 283 283
288 287 284 282 283 288 288 288 288 286 284 283 283 283 283 283 283 283 284 284 284 284 284 285 285 285 286 287 288 287 287 288 286 284 283 283 283 283 283 283 283 283 283 282
287 289 285 288 288 286 286 284 283 283 282 282 282 282 282 282 282 283 283 283 283 283 283 284 284 284 285 286 288 287 287 287 286 284 283 283 283 283 283 283 283 283 283 282
286 286 284 285 284 285 284 283 283 282 282 282 282 281 281 282 282 282 282 282 282 283 283 283 283 283 284 285 284 286 286 287 286 284 283 283 283 284 284 284 283 283 282 282
287 285 280 282 284 286 284 283 283 282 281 281 281 281 281 281 281 281 281 282 282 282 282 282 282 282 283 283 284 284 286 285 285 283 283 283 283 283 284 284 284 283 283 281
286 284 285 285 283 283 283 282 282 281 281 281 281 281 281 281 282 282 282 282 281 281 281 282 282 281 282 282 283 283 284 283 283 283 283 283 283 283 284 284 284 283 282 282
Wind_Speed
6 7 4 4 4 2 1 2 3 2 4 5 3 7 13 19 16 16 15 13 12 11 12 12 13 15 16 17 18 18 20 21 20 17 15 14 14 14 13 13 12 11 11 11
6 4 4 4 4 4 5 2 4 5 4 3 6 13 13 14 11 12 14 14 13 13 12 12 13 15 16 16 15 17 18 19 18 16 14 13 12 12 13 13 13 12 12 12
6 3 7 3 6 4 3 2 3 4 7 3 7 7 7 3 3 7 11 12 14 14 13 12 12 13 12 12 10 10 14 16 17 16 14 12 12 12 12 12 11 11 12 12
6 7 4 5 5 4 2 4 3 4 5 3 6 4 7 5 9 7 12 15 14 12 11 11 11 11 11 10 8 8 11 15 17 17 15 13 12 13 13 12 12 12 13 13
2 6 6 8 2 3 2 4 3 3 4 4 8 4 9 5 6 6 10 13 14 13 12 11 11 11 10 9 8 7 10 15 17 17 16 14 13 13 14 14 14 13 14 15
2 2 3 2 2 0 2 1 5 4 3 3 3 3 6 3 3 5 10 18 12 14 13 12 11 11 11 10 8 8 9 13 16 17 16 15 14 14 13 13 13 13 13 14
5 3 3 4 3 2 6 6 4 6 4 4 3 2 9 6 4 4 14 22 16 12 14 13 12 12 12 12 11 9 10 12 13 14 15 15 15 14 14 13 12 12 13 13
3 7 5 8 3 2 5 4 4 5 2 5 3 5 5 2 9 13 13 14 14 10 12 14 14 15 14 14 13 13 13 13 14 14 14 13 12 11 11 10 11 12 13 15
3 4 2 2 2 2 1 3 3 7 1 3 3 7 10 2 5 13 13 14 16 12 13 16 18 18 17 16 16 15 14 14 14 13 12 11 10 10 10 10 11 12 14 16
3 4 1 4 2 6 4 3 4 3 3 5 4 6 5 6 7 8 18 22 20 20 19 20 21 22 21 20 18 17 17 16 15 13 12 11 10 10 10 12 13 15 17 19
4 3 4 2 2 4 2 2 4 3 3 4 2 5 7 6 4 6 14 21 27 31 25 24 25 26 25 24 23 20 18 17 15 14 13 12 11 12 12 14 16 17 18 20
1 4 3 8 2 1 2 5 4 4 5 2 1 7 3 6 6 7 18 34 29 25 26 25 26 28 32 31 28 26 23 20 18 16 15 14 14 14 15 16 17 18 19 20
4 2 4 9 3 3 2 4 3 3 2 7 3 6 1 3 7 21 27 32 32 30 29 28 28 29 30 34 32 30 27 24 21 19 17 16 16 16 16 17 18 19 20 20
2 2 7 6 7 3 3 4 5 5 3 4 8 21 17 12 12 30 35 33 29 29 30 35 32 32 30 29 33 32 29 25 23 20 18 17 17 17 18 19 19 19 19 19
3 4 1 5 5 3 5 10 8 10 10 5 23 5 15 14 12 22 28 34 35 33 38 43 43 39 36 32 31 32 30 27 25 22 20 18 18 19 20 20 20 21 21 22
1 2 2 5 3 3 6 17 8 12 10 8 16 18 4 14 18 29 37 38 35 39 44 47 48 40 36 30 25 26 28 28 26 23 21 20 20 20 21 22 22 23 24 25
3 4 3 6 4 7 7 8 5 3 4 6 4 6 9 9 23 29 35 29 36 43 46 51 50 35 28 20 16 23 25 26 29 27 25 23 22 22 21 21 23 24 24 24
5 4 2 3 4 1 6 3 4 7 6 5 7 7 16 22 29 23 16 31 43 47 47 47 44 30 27 26 22 22 23 23 25 25 24 23 22 22 21 22 24 24 25 25
4 4 1 1 2 7 6 2 4 2 0 8 5 13 21 28 27 18 30 39 41 42 44 44 42 37 29 30 28 26 22 21 24 26 25 23 20 21 21 22 23 24 26 28
0 3 3 3 3 5 3 1 2 4 3 15 14 15 21 26 12 13 37 37 39 39 40 43 42 39 35 35 29 24 25 26 30 28 25 21 20 20 21 22 25 27 28 30
4 2 6 4 5 9 4 7 3 4 4 19 17 20 20 10 18 32 37 39 40 40 41 42 41 42 39 37 36 30 30 32 31 25 22 21 20 22 23 24 26 29 30 32
6 7 5 2 1 8 11 3 3 6 15 19 22 24 24 29 35 40 43 43 43 45 45 43 44 39 39 36 35 38 38 35 30 24 24 23 22 21 22 25 28 29 31 33
3 6 4 8 4 4 14 14 10 14 16 18 26 31 33 39 42 43 44 44 43 45 48 44 44 43 40 34 36 38 39 36 31 26 26 25 23 22 23 27 31 33 33 34
4 5 3 2 3 8 11 13 19 23 25 29 31 34 36 40 42 43 42 43 44 46 47 46 44 42 42 37 38 34 34 32 31 29 28 25 25 25 27 31 33 36 36 36
2 5 3 4 3 2 8 21 24 27 30 32 34 36 38 36 37 38 37 41 42 43 44 44 42 41 41 38 36 36 28 26 30 28 28 27 26 28 30 32 35 37 39 37
5 3 2 2 1 2 13 20 23 28 32 35 38 40 39 39 41 41 42 44 42 42 43 43 43 42 42 40 35 34 28 23 25 28 29 28 28 30 32 33 37 38 39 37
Wind_Direction
18 65 51 347 334 340 325 292 294 314 7 332 314 291 288 291 275 264 256 245 242 246 251 260 271 278 280 277 267 258 245 242 241 246 258 265 260 257 256 257 263 271 277 283
31 73 335 294 5 62 33 342 314 296 11 346 3 300 279 275 263 263 265 259 253 254 260 272 282 288 290 288 276 258 246 239 234 238 252 256 257 256 254 257 260 263 267 277
86 342 335 53 31 33 47 37 348 257 318 87 322 309 322 334 317 275 256 255 246 250 260 274 288 294 298 299 289 263 242 230 226 234 245 253 257 256 253 254 256 257 261 270
69 341 18 52 70 5 28 334 312 344 28 292 7 288 297 333 308 272 268 254 255 257 270 288 299 301 302 304 299 266 239 227 226 232 241 251 260 255 250 250 253 259 265 272
279 10 18 49 322 336 280 30 31 63 78 43 1 79 273 352 324 358 1 317 267 264 273 286 295 299 300 302 295 270 242 229 226 228 237 250 259 259 257 258 261 267 272 278
125 58 63 221 265 191 290 35 43 56 79 28 291 82 286 289 320 316 320 337 318 262 269 279 286 292 294 292 288 268 245 233 229 233 241 250 256 258 260 261 261 264 267 274
355 3 342 13 320 13 41 45 348 358 10 223 303 13 247 300 294 276 317 328 328 282 269 276 280 286 288 287 278 266 253 244 240 242 248 254 259 263 263 265 268 272 275 281
90 336 9 357 50 319 38 118 145 232 265 275 12 234 241 246 300 314 315 322 329 304 271 275 280 283 281 276 268 258 251 247 246 247 253 255 255 254 256 260 267 276 284 288
63 295 337 13 345 61 287 47 156 99 91 39 278 287 309 325 37 19 2 7 2 334 294 283 280 280 277 271 263 258 252 248 247 247 246 246 248 257 268 277 284 289 293 296
181 353 269 295 359 43 117 151 33 9 341 306 305 274 243 326 332 340 10 16 4 343 320 301 287 283 278 269 261 253 249 245 241 242 243 247 253 262 272 282 288 292 296 299
131 97 288 24 182 183 28 19 43 119 130 202 270 255 213 219 227 286 347 346 338 332 323 315 299 285 275 265 257 250 247 247 247 246 248 251 260 270 281 290 295 298 300 301
197 136 257 228 140 148 171 190 167 127 268 234 191 270 190 216 265 304 330 332 338 337 327 321 311 295 275 267 259 254 250 251 250 248 252 258 268 276 286 293 299 302 304 305
174 318 356 337 19 3 205 207 145 115 79 210 149 260 31 211 317 338 328 336 335 335 338 332 324 311 292 270 261 255 250 250 248 247 252 260 270 280 288 293 297 300 302 304
147 149 177 204 214 142 263 207 193 147 147 237 223 272 289 318 341 334 335 336 339 340 342 344 331 320 307 283 260 254 250 248 245 247 254 265 273 282 288 290 293 298 301 302
120 201 280 260 238 219 253 254 204 199 229 215 276 258 286 317 317 324 332 340 336 339 340 336 331 316 307 291 262 250 248 244 242 248 257 267 276 282 288 292 293 296 298 299
44 239 109 294 341 298 268 266 239 233 251 259 279 282 323 329 343 340 337 335 339 339 335 333 331 319 311 297 266 252 250 244 243 251 263 273 280 284 287 286 286 289 293 296
103 128 77 262 343 329 303 247 173 202 216 164 223 248 311 337 343 334 325 340 338 334 335 333 328 317 314 308 269 258 257 252 250 257 269 272 279 283 284 282 282 289 294 296
130 96 101 270 5 51 242 153 147 206 258 227 301 299 324 323 324 324 348 339 335 331 328 326 324 315 319 312 283 266 261 256 253 258 267 274 277 277 277 277 282 291 295 295
165 121 44 161 226 297 298 165 136 165 347 9 294 325 329 330 330 326 338 330 325 322 319 317 318 312 306 306 295 265 258 266 267 269 274 278 272 273 279 284 290 292 294 295
92 74 125 78 148 255 249 125 118 128 252 4 357 343 337 344 334 323 330 336 336 334 330 325 318 313 302 303 290 265 273 279 278 274 274 271 274 281 287 293 294 296 295 296
143 198 222 197 245 282 278 304 233 85 309 352 352 343 334 321 301 308 328 331 331 331 331 330 328 315 310 297 286 276 286 294 291 277 270 271 277 285 290 296 299 301 300 297
173 159 207 128 234 278 352 41 90 347 348 347 342 337 321 322 323 326 325 324 323 322 323 321 323 327 313 314 294 280 280 289 289 272 269 274 281 286 296 301 303 302 300 299
283 201 181 186 216 41 67 85 27 1 340 331 329 333 329 323 320 319 318 318 318 318 317 311 314 318 319 316 306 291 279 281 285 271 269 275 279 285 296 303 305 304 302 302
240 196 209 70 53 115 68 25 1 351 338 333 330 324 319 315 316 312 316 321 322 325 323 321 324 320 315 313 314 303 302 295 279 269 269 274 280 292 300 302 304 305 304 305
219 152 177 264 16 163 342 350 343 337 333 328 322 317 315 318 315 314 314 320 323 324 324 326 327 323 319 322 316 308 303 294 278 269 268 274 282 292 298 300 306 307 304 304
190 196 171 213 51 241 314 330 330 326 324 323 324 322 321 322 323 327 325 325 324 325 328 328 326 326 324 324 320 316 309 303 288 274 268 275 284 289 294 299 305 307 303 300